Volver al catálogo

NAVSTAR 38

USA 126

ActivoNavegaciónMEO
NORAD 23953·PAYLOAD·🇺🇸 United States

Lanzado Jul 16, 1996 desde Cape Canaveral Space Force Station

Loading…

Próximos Pases (próximas 24 horas)

TLE

ActualizadoSource: Space-Track

Época: Sep 13, 2026, 06:47 UTC

1 23953U 96041A   26256.28327742 -.00000075  00000-0  00000-0 0  9991
2 23953  56.0977  43.5415 0062762 110.3928 254.3327  1.88695526216451

Sigue NAVSTAR 38 en tiempo real con AllMySat

Download on the App Store